Aeroporto :
LOGIN :

Iscrizione | Disclaimer

   EN    FR    IT 

 










Sommario :    VFR   VFR Marginale   IFR   IFR Intensivo   IFR Molto Intensivo
Visibilità : 
Base nubi : 
>= 8 km
>= 3000ft
5 / 8 km
1000 / 3000 ft
1500m / 5 km
500 / 1000 ft
800 / 1500m
200 / 500 ft
< 800m
< 200 ft
Simboli :   Temporali  Nebbia  Neve Forte  Precipitazioni Forti  Vento > 20 kt
SIGMETs :   Varie  Temporali  Ghiacco  Turbolenza  Onda orograficha  Ceneri Vulcaniche







- Altitudine del aeroporto : 1416 ft
- Codice IATA : ZRH


LSZH - Zurich

ULTIMO METAR :
  • 220750Z VRB01KT CAVOK 23/17 Q1026 NOSIG

METARs OBSOLETI :
  • 220720Z VRB01KT CAVOK 22/17 Q1026 NOSIG
  • 220650Z VRB01KT CAVOK 21/16 Q1026 NOSIG
  • 220620Z VRB01KT CAVOK 20/17 Q1026 NOSIG
  • 220550Z VRB01KT CAVOK 18/16 Q1025 NOSIG
  • 220520Z 30002KT CAVOK 17/16 Q1025 NOSIG

TAF TAF LSZH
Valido dal 22 a 06 ore il 23 a 12 ore UTC


220525Z 2206/2312 VRB02KT CAVOK TX31/2215Z TN16/2206Z TN15/2304Z
PROB40
TEMPO 2214/2220 06006KT
BECMG 2308/2310 04007KT
ATIS : +41 43 816 2295 (DEP) +41 43 816 2294 (ARR)
Nessun NOTAM noto per questo aeroporto.



MetMap, La meteo Aeronautica in un colpo d'occhio ! - Copyright ORBIFLY Dicembre 2007 - Disclaimer

ORBIFLY MET'MAP TEAM :

Programmazione e sviluppo : Alexandra Zaïnal
Concezione e sviluppo : Baudouin d'Aumeries
Co-Programmazione e sviluppo : Marc-Olivier Méhu
Supporto tecnico e logistico : Manuel Goepfert
Aiuto per la traduzione : Arnaldo La Scala

Contatto : metmap@orbifly.com




FONTI E CREDITI :

   NOAA